Location: Focicchia
(42.2496°N, 9.2935°E)
Time: 17:59:40
(UTC+00:00)

GEOS 3 Rocket - Pass Details

Date: 07 June 2020
Orbit: 772 x 847 km, 115.0° (Epoch: 04 July)

Event Time Altitude Azimuth Distance (km) Brightness Sun altitude
Rises 01:48:08 0° 145° (SE) 3,282 6.6 -16.7°
Reaches altitude 10° 01:50:24 10° 146° (SE) 2,366 5.8 -16.5°
Maximum altitude 01:55:33 82° 234° (SW) 825 3.5 -15.9°
Drops below altitude 10° 02:00:50 10° 322° (NW) 2,429 6.3 -15.3°
Sets 02:03:11 0° 324° (NW) 3,376 7.0 -15.0°
